| time (UTC) | temp C | wind direction | speed KPH | gust KPH | rain 1hr cm | rain 24hr cm | rain mn cm | humidity % | barometer mb |
| 20260504211554 | 11 | 293 | 0.0 | 16.1 | 0.00 | 0.28 | 0.05 | 68 | 1004.0 |
| 20260504210059 | 11 | 228 | 1.6 | 20.9 | 0.00 | 0.28 | 0.05 | 68 | 1003.9 |
| 20260504204548 | 11 | 259 | 0.0 | 20.9 | 0.00 | 0.41 | 0.05 | 67 | 1003.9 |
| 20260504203505 | 11 | 270 | 11.3 | 24.1 | 0.00 | 0.48 | 0.05 | 69 | 1002.3 |
| 20260504203052 | 11 | 243 | 3.2 | 20.9 | 0.00 | 0.41 | 0.05 | 65 | 1003.8 |
| 20260504201533 | 11 | 229 | 0.0 | 11.3 | 0.00 | 0.41 | 0.05 | 66 | 1003.8 |
| 20260504200505 | 12 | 237 | 9.7 | 22.5 | 0.00 | 0.53 | 0.05 | 67 | 1002.3 |
| 20260504200100 | 11 | 216 | 4.8 | 27.4 | 0.00 | 0.41 | 0.05 | 65 | 1003.8 |
| 20260504200005 | 12 | 259 | 9.7 | 27.4 | 0.00 | 0.56 | 0.05 | 67 | 1002.3 |
| 20260504194602 | 11 | 262 | 0.0 | 27.4 | 0.00 | 0.61 | 0.05 | 66 | 1003.9 |
| 20260504193505 | 12 | 224 | 9.7 | 19.3 | 0.00 | 0.64 | 0.05 | 71 | 1002.3 |
| 20260504193049 | 11 | 250 | 1.6 | 16.1 | 0.00 | 0.61 | 0.05 | 65 | 1004.0 |
| 20260504191543 | 11 | 151 | 1.6 | 22.5 | 0.00 | 0.61 | 0.05 | 64 | 1003.9 |
| 20260504190505 | 11 | 190 | 6.4 | 16.1 | 0.00 | 0.74 | 0.05 | 70 | 1002.4 |
| 20260504190059 | 11 | 324 | 4.8 | 29.0 | 0.00 | 0.61 | 0.05 | 63 | 1004.0 |
| 20260504190004 | 12 | 216 | 9.7 | 40.2 | 0.00 | 0.76 | 0.05 | 68 | 1002.4 |
| 20260504184535 | 12 | 265 | 1.6 | 24.1 | 0.00 | 0.94 | 0.05 | 54 | 1003.9 |
| 20260504183505 | 13 | 258 | 8.0 | 25.7 | 0.00 | 0.89 | 0.05 | 57 | 1001.8 |
| 20260504183032 | 13 | 211 | 1.6 | 19.3 | 0.00 | 0.94 | 0.05 | 47 | 1003.8 |
| 20260504183005 | 13 | 286 | 11.3 | 35.4 | 0.00 | 0.89 | 0.05 | 55 | 1001.8 |
| 20260504181523 | 13 | 42 | 4.8 | 19.3 | 0.00 | 0.94 | 0.05 | 42 | 1003.7 |
| 20260504180505 | 15 | 258 | 9.7 | 29.0 | 0.00 | 1.04 | 0.05 | 43 | 1001.6 |
| 20260504180018 | 14 | 252 | 1.6 | 20.9 | 0.00 | 0.94 | 0.05 | 41 | 1003.4 |
| 20260504180005 | 15 | 263 | 4.8 | 32.2 | 0.00 | 1.07 | 0.05 | 45 | 1001.3 |
| 20260504174514 | 15 | 250 | 0.0 | 17.7 | 0.00 | 1.09 | 0.05 | 37 | 1003.2 |
| 20260504173505 | 15 | 272 | 9.7 | 20.9 | 0.00 | 1.12 | 0.05 | 39 | 1001.3 |
| 20260504173008 | 15 | 214 | 0.0 | 17.7 | 0.00 | 1.09 | 0.05 | 38 | 1003.0 |
| 20260504171501 | 15 | 269 | 0.0 | 20.9 | 0.00 | 1.09 | 0.05 | 38 | 1003.0 |
| 20260504140504 | 10 | 238 | 8.0 | 16.1 | 0.00 | 1.35 | 0.05 | 57 | 1003.0 |
| 20260504130504 | 8 | 267 | 8.0 | 20.9 | 0.00 | 1.52 | 0.05 | 68 | 1002.3 |
| 20260504100503 | 1 | 301 | 3.2 | 14.5 | 0.00 | 1.78 | 0.05 | 91 | 1000.9 |
| 20260504081550 | 2 | 39 | 0.0 | 14.5 | 0.00 | 2.11 | 0.05 | 87 | 1001.4 |
| 20260504080504 | 2 | 331 | 4.8 | 24.1 | 0.00 | 2.03 | 0.05 | 91 | 999.1 |
| 20260504050516 | 4 | 309 | 6.4 | 14.5 | 0.03 | 2.11 | 0.05 | 96 | 998.6 |
| 20260504050016 | 4 | 317 | 4.8 | 19.3 | 0.03 | 2.11 | 0.05 | 96 | 998.6 |
| 20260504044535 | 4 | 288 | 0.0 | 17.7 | 0.00 | 2.21 | 0.05 | 89 | 1000.2 |
| 20260504043031 | 3 | 339 | 0.0 | 14.5 | 0.00 | 2.21 | 0.05 | 89 | 1000.2 |
| 20260504041525 | -67 | 264 | 0.0 | 8.0 | 0.03 | 2.21 | 0.05 | 89 | 1000.1 |
| 20260504040516 | 5 | 331 | 4.8 | 19.3 | 0.03 | 2.11 | 0.03 | 96 | 998.6 |
| 20260504040021 | 4 | 305 | 1.6 | 24.1 | 0.03 | 2.21 | 0.05 | 90 | 1000.2 |
| 20260504040016 | 5 | 330 | 8.0 | 29.0 | 0.03 | 2.11 | 0.03 | 96 | 998.4 |
| 20260504034515 | 4 | 332 | 0.0 | 14.5 | 0.03 | 2.21 | 0.05 | 90 | 1000.0 |
| 20260504033010 | 3 | 290 | 3.2 | 16.1 | 0.03 | 2.21 | 0.05 | 90 | 999.9 |
| 20260504031506 | 3 | 313 | 0.0 | 6.4 | 0.00 | 2.18 | 0.03 | 90 | 999.9 |
| 20260504030516 | 5 | 324 | 4.8 | 19.3 | 0.00 | 2.08 | 0.00 | 97 | 998.1 |
| 20260504030001 | 4 | 343 | 0.0 | 8.0 | 0.00 | 2.18 | 0.03 | 90 | 999.7 |
| 20260504024556 | 4 | 297 | 0.0 | 8.0 | 0.00 | 2.18 | 0.03 | 90 | 999.6 |
| 20260504023050 | 3 | 319 | 0.0 | 9.7 | 0.00 | 2.18 | 0.03 | 89 | 999.6 |
| 20260504023015 | 4 | 318 | 4.8 | 20.9 | 0.03 | 2.08 | 2.08 | 97 | 998.1 |
| 20260504021547 | 4 | 281 | 0.0 | 9.7 | 0.00 | 2.18 | 0.03 | 90 | 999.6 |
| 20260504020515 | 4 | 320 | 6.4 | 16.1 | 0.05 | 2.08 | 2.08 | 97 | 998.0 |
| 20260504020041 | 4 | 288 | 0.0 | 12.9 | 0.00 | 2.18 | 0.03 | 90 | 999.7 |
| 20260504014548 | 4 | 7 | 0.0 | 3.2 | 0.00 | 2.18 | 0.03 | 90 | 999.8 |
| 20260504013515 | 4 | 333 | 6.4 | 14.5 | 0.05 | 2.06 | 2.06 | 96 | 998.0 |
| 20260504013037 | 4 | 324 | 0.0 | 0.0 | 0.03 | 2.18 | 0.03 | 90 | 999.8 |
| 20260504011526 | 4 | 25 | 0.0 | 14.5 | 0.03 | 2.18 | 0.03 | 90 | 999.8 |
| 20260504010515 | 4 | 347 | 9.7 | 19.3 | 0.05 | 2.03 | 2.03 | 96 | 997.9 |
| 20260504010021 | 4 | 23 | 0.0 | 12.9 | 0.03 | 2.18 | 0.03 | 90 | 999.4 |
| 20260504010015 | 4 | 341 | 6.4 | 20.9 | 0.05 | 2.03 | 2.03 | 96 | 997.9 |
| 20260504004517 | 4 | 283 | 0.0 | 16.1 | 0.05 | 2.18 | 0.03 | 90 | 999.6 |
| 20260504003515 | 4 | 351 | 9.7 | 20.9 | 0.05 | 2.01 | 2.01 | 96 | 997.6 |
| 20260504003010 | 3 | 298 | 1.6 | 17.7 | 0.05 | 2.16 | 0.00 | 90 | 999.5 |
| 20260504001504 | -67 | 32 | 0.0 | 9.7 | 0.05 | 2.16 | 0.00 | 90 | 999.4 |
| 20260504000515 | 5 | 351 | 11.3 | 20.9 | 0.08 | 2.01 | 2.01 | 96 | 997.6 |
| 20260504000002 | 3 | 14 | 0.0 | 4.8 | 0.05 | 2.16 | 0.00 | 89 | 999.5 |
| 20260503234600 | 4 | 27 | 0.0 | 14.5 | 0.05 | 2.11 | 2.11 | 89 | 999.5 |
| 20260503233029 | 4 | 42 | 0.0 | 0.0 | 0.00 | 0.00 | 2.11 | 90 | 999.4 |
| 20260503233015 | 5 | 1 | 8.0 | 20.9 | 0.13 | 1.96 | 1.96 | 96 | 997.8 |
| 20260503231528 | 4 | 290 | 0.0 | 17.7 | 0.10 | 2.11 | 2.11 | 90 | 999.6 |
| 20260503230023 | 3 | 37 | 0.0 | 19.3 | 0.08 | 2.11 | 2.11 | 89 | 999.6 |
| 20260503230015 | 5 | 5 | 12.9 | 32.2 | 0.13 | 1.93 | 1.93 | 96 | 997.8 |
| 20260503224526 | 3 | 18 | 0.0 | 14.5 | 0.08 | 2.08 | 2.08 | 89 | 999.6 |
| 20260503223021 | 4 | 25 | 6.4 | 19.3 | 0.08 | 2.06 | 2.06 | 90 | 999.7 |
| 20260503223015 | 5 | 3 | 8.0 | 22.5 | 0.10 | 1.83 | 1.83 | 96 | 997.8 |
| 20260503221520 | 5 | 37 | 1.6 | 16.1 | 0.05 | 2.03 | 2.03 | 90 | 999.8 |
| 20260503220515 | 5 | 357 | 11.3 | 19.3 | 0.10 | 1.80 | 1.80 | 96 | 998.0 |
| 20260503220057 | 4 | 71 | 0.0 | 17.7 | 0.05 | 2.03 | 2.03 | 89 | 999.8 |
| 20260503214545 | 5 | 311 | 0.0 | 16.1 | 0.10 | 2.01 | 2.01 | 89 | 1000.0 |
| 20260503213514 | 5 | 18 | 11.3 | 25.7 | 0.13 | 1.75 | 1.75 | 99 | 998.3 |
| 20260503213042 | 5 | 17 | 0.0 | 4.8 | 0.10 | 1.98 | 1.98 | 89 | 1000.0 |
| 20260503213015 | 6 | 18 | 9.7 | 27.4 | 0.10 | 1.75 | 1.75 | 96 | 998.3 |